Location: Saint-Geni�s
(44.0662°N, 4.7216°E)
Time: 02:06:14
(UTC+00:00)

Daily predictions for brighter satellites

Satellite Brightness Start Highest point End
(mag) Time Altitude Azimuth Time Altitude Azimuth Time Altitude Azimuth
SL-16 R/B 4.2 00:05:20 22° E 00:07:27 26° ENE 00:12:28 10° N
Meteor 1-11 Rocket 4.4 00:06:51 10° N 00:11:25 56° N 00:11:25 56° N
Cosmos 2154 Rocket 4.4 00:16:51 10° NNW 00:21:59 55° NW 00:21:59 55° NW
Cosmos 1844 Rocket 3.8 00:29:45 36° NW 00:29:45 36° NW 00:34:15 10° NNE
USA 281 3.4 00:34:03 59° WNW 00:34:03 59° WNW 00:39:32 10° NNW
Resurs 1-4 Rocket 3.5 00:32:26 10° NNE 00:36:15 30° ENE 00:36:15 30° ENE
SJ 16-02 3.3 00:39:48 27° NE 00:39:48 27° NE 00:41:57 10° NNE
Cosmos 2341 Rocket 4.1 00:41:47 10° N 00:47:28 71° NNW 00:47:28 71° NNW
Cosmos 2181 Rocket 4.1 00:49:09 73° ENE 00:49:09 73° ENE 00:55:00 10° N
Cosmos 2082 Rocket 3.4 00:46:07 10° NNW 00:51:19 37° NE 00:53:02 30° E
Cosmos 1238 Rocket 4.0 00:46:06 10° N 00:52:27 80° ENE 00:52:27 80° ENE
SL-8 Rocket 4.0 00:47:41 10° N 00:53:36 79° N 00:53:36 79° N
CZ-2D R/B 3.0 00:50:04 10° NNE 00:54:48 45° E 00:54:48 45° E
Cosmos 1833 Rocket 3.0 00:49:42 10° NNW 00:54:32 62° N 00:54:32 62° N
ADEOS II 3.5 01:03:25 10° NE 01:07:52 27° E 01:08:12 27° E
Cosmos 1943 Rocket 4.2 01:10:37 16° ESE 01:11:41 17° E 01:15:11 10° ENE
Cosmos 2278 Rocket 2.3 01:15:41 73° N 01:15:41 73° N 01:20:50 10° NNE
NOSS 3-3 (A) 3.8 01:18:42 82° NW 01:18:42 82° NW 01:25:11 10° NE
NOSS 3-3 (C) 3.8 01:18:49 82° NW 01:18:49 82° NW 01:25:18 10° NE
Helios 1B rocket 3.8 01:16:51 10° NNE 01:19:25 37° NNE 01:19:25 37° NNE
BREEZE-M R/B 4.1 01:22:17 47° N 01:22:24 47° N 01:29:03 10° ENE
ATLAS 2AS CENTAUR R/B 4.3 01:18:06 10° NNW 01:24:49 34° NE 01:31:04 10° E
Meteor 2-9 Rocket 4.2 01:23:03 10° NNW 01:28:40 78° WNW 01:28:40 78° WNW
IDEFIX/ARIANE 42P 4.5 01:25:11 10° NE 01:29:09 21° E 01:31:00 18° ESE
ATLAS 5 CENTAUR R/B 2.5 01:23:36 10° NW 01:28:14 60° WNW 01:28:14 60° WNW
Cosmos 2242 Rocket 4.4 01:31:04 47° NE 01:31:04 47° NE 01:34:35 10° NNE
Cosmos 2218 Rocket 4.2 01:28:12 10° NNW 01:33:46 54° WNW 01:33:46 54° WNW
ADEOS Rocket 4.3 01:31:37 11° SE 01:37:34 44° ENE 01:44:17 10° N
NPP 3.5 01:33:18 10° NNE 01:38:43 88° ESE 01:38:44 88° ESE
COSMOS 2406 4.1 01:34:54 10° NW 01:38:34 37° WNW 01:38:34 37° WNW
Cosmos 2369 Rocket 4.4 01:37:50 11° SE 01:40:30 15° E 01:43:36 10° ENE
Cosmos 2366 rocket 4.3 01:34:58 10° NNW 01:40:25 49° WNW 01:40:25 49° WNW
Cosmos 1908 Rocket 4.2 01:38:41 10° N 01:42:07 53° N 01:42:07 53° N
Gbstr 26 Del rocket 4.4 01:41:33 37° WNW 01:43:26 49° NNW 01:48:33 10° NE
CZ-4C R/B 2.9 01:38:05 10° NW 01:45:26 87° NE 01:53:55 10° SE
Cosmos 1821 Rocket 4.0 01:42:14 10° N 01:48:38 84° E 01:50:23 51° SSE
Cosmos 1680 Rocket 3.4 01:45:11 10° NNW 01:50:32 87° WSW 01:50:38 86° SSW
SL-16 R/B 2.5 01:50:25 60° WSW 01:50:36 60° WSW 01:56:49 10° NNW
Cosmos 2297 4.2 01:49:46 44° SE 01:50:49 49° ESE 01:56:19 10° NE
DELTA 2 R/B (1) 4.0 01:53:56 47° SE 01:53:56 47° SE 01:58:17 10° ESE
SL-08 R/B 4.3 01:49:42 10° NNW 01:55:46 65° W 01:56:19 62° WSW
Cosmos 1378 4.3 01:57:44 40° ENE 01:57:44 40° ENE 02:00:45 10° NNE
USA 234 3.3 01:56:30 10° NE 02:03:00 65° SE 02:04:47 48° SSW
Okean 3 3.7 02:07:21 61° ESE 02:07:36 63° E 02:11:52 10° NNE
Cosmos 1703 Rocket 3.8 02:08:54 56° NW 02:08:54 56° NW 02:12:40 10° N
Nadezhda 3 Rocket 4.0 02:08:08 53° SSW 02:09:39 73° W 02:16:00 10° N
AQUA 4.0 02:06:20 10° N 02:10:59 55° WNW 02:10:59 55° WNW
Cosmos 1782 Rocket 3.4 02:07:36 10° N 02:12:07 84° W 02:12:07 84° W
Cosmos 990 Rocket 4.2 02:13:12 51° W 02:13:37 52° WNW 02:18:45 10° NNE
SJ 16-02 3.3 02:16:46 18° NW 02:16:46 18° NW 02:19:38 10° NNW
Resurs 1-4 Rocket 2.9 02:12:13 10° N 02:16:57 35° WNW 02:17:20 34° WNW
CZ-4C R/B 3.6 02:18:18 56° SSE 02:19:11 81° ENE 02:23:38 10° N
Okean 1-7 3.6 02:22:45 43° WNW 02:22:45 43° WNW 02:26:24 10° N
Okean 2 Rocket 4.2 02:18:48 10° N 02:23:02 43° ENE 02:26:36 14° SE
Milstar 3 4.0 02:22:39 25° S 02:23:16 25° S 02:30:27 10° ESE
Cosmos 1934 Rocket 3.9 02:19:52 10° N 02:26:12 90° W 02:30:06 24° S
ARGOS Delta rocket 3.6 02:23:35 10° N 02:27:57 64° WNW 02:28:19 61° WSW
Meteor 2-4 Rocket 4.3 02:27:35 39° WSW 02:28:43 43° WNW 02:34:19 10° N
Cosmos 1937 Rocket 3.5 02:28:00 52° WSW 02:28:59 64° WNW 02:34:07 10° NNE
Cosmos 1805 3.9 02:26:28 10° N 02:30:19 54° E 02:32:09 28° SE
Meteor 1-13 Rocket 4.2 02:28:59 43° SSW 02:30:58 77° W 02:36:40 10° N
Cosmos 2221 Rocket 4.2 02:29:39 31° SSE 02:31:34 56° E 02:36:01 10° NNE
Spot 1 3.9 02:34:36 61° SSW 02:35:06 69° WSW 02:39:26 10° NNW
CZ-2D R/B 3.3 02:30:36 10° N 02:35:07 27° WNW 02:36:07 25° W
Cosmos 2082 Rocket 2.8 02:30:18 10° NW 02:34:48 34° W 02:34:48 34° W
X-37B 0.9 02:37:13 65° ENE 02:37:13 65° ENE 02:40:01 10° E
Cosmos 1898 Rocket 4.1 02:35:59 37° W 02:37:05 41° WNW 02:42:05 10° N
SL-4 R/B 2.4 02:37:10 51° WSW 02:37:42 54° SW 02:42:20 10° SE
ARIANE 5 R/B 3.1 02:32:37 10° NNE 02:37:46 56° E 02:41:07 21° S
IRS-P3 4.2 02:36:02 10° NNE 02:41:25 77° ESE 02:44:21 28° S
Meteor 1-12 Rocket 4.3 02:35:35 10° NNW 02:41:31 63° W 02:44:35 29° SSW
Meteor 1-28 Rocket 3.7 02:42:43 41° WNW 02:42:43 41° WNW 02:45:38 10° NNW
ADEOS II 2.7 02:42:46 10° N 02:47:39 41° WNW 02:49:09 33° WSW
Cosmos 372 Rocket 3.9 02:45:48 38° SSW 02:47:47 79° WNW 02:52:55 10° NNE
OE (NEXTSAT) 4.4 02:48:30 56° WNW 02:49:02 70° N 02:52:30 10° ENE
Cosmos 489 Rocket 4.5 02:45:19 10° NNW 02:51:23 57° WSW 02:57:04 12° S
Cosmos 1605 Rocket 3.9 02:45:44 10° N 02:51:53 89° WSW 02:58:04 10° S
Cosmos 1943 Rocket 2.2 02:52:08 33° SW 02:54:46 73° WNW 03:00:26 10° NNE
CBERS-1 4.3 02:50:10 10° N 02:55:05 48° WNW 02:56:57 33° WSW
Cosmos 2298 Rocket 4.5 02:52:08 19° S 02:55:48 59° ESE 03:01:02 10° NNE
Cosmos 1356 Rocket 3.5 02:54:25 10° NNW 02:58:28 54° W 02:59:55 35° SSW
SL-08 R/B 3.3 02:53:56 10° SSE 02:58:49 89° E 03:03:41 10° NNW
Cosmos 2278 Rocket 4.1 02:57:30 13° WNW 03:00:07 16° NW 03:03:38 10° N
NOSS 3-4 (A) 4.0 02:55:01 10° NW 03:01:56 55° WSW 03:09:35 10° SSE
NOSS 3-4 (C) 3.9 02:55:07 10° NW 03:02:03 56° WSW 03:09:43 10° SSE
Cosmos 1378 Rocket 4.3 02:58:38 12° S 03:02:38 52° E 03:06:55 10° NNE
MSX 3.8 02:57:56 10° NNE 03:03:44 82° WNW 03:07:53 20° SSW
IRS-1D 4.4 03:01:32 10° N 03:06:09 33° WNW 03:08:10 25° WSW
Sich 1 Rocket 4.0 03:03:32 10° NNW 03:07:53 43° W 03:09:51 27° SW
IDEFIX/ARIANE 42P 2.8 03:03:57 10° N 03:09:00 51° WNW 03:11:49 25° SW
Cosmos 1842 3.5 03:07:03 16° S 03:10:01 65° E 03:13:52 10° NNE
Cosmos 1125 Rocket 4.0 03:08:55 13° S 03:13:38 61° ESE 03:18:50 10° NNE
ATLAS 2AS CENTAUR R/B 2.7 03:09:06 10° NW 03:16:22 70° WSW 03:23:02 10° SSE
CZ-4B R/B 3.5 03:11:52 10° N 03:16:34 57° WNW 03:19:35 22° SW
Cosmos 1674 Rocket 3.5 03:13:42 16° S 03:17:09 90° W 03:21:34 10° N
COSMOS 2441 4.4 03:13:17 10° N 03:18:07 66° WNW 03:21:39 19° SSW
Meteor 2-20 4.4 03:12:01 10° S 03:18:10 90° WNW 03:24:22 10° N
Meteor 1-15 Rocket 4.5 03:17:11 10° NNW 03:22:30 46° W 03:27:48 10° SSW
ADEOS Rocket 3.8 03:18:33 16° SSW 03:23:08 37° W 03:29:37 10° NNW
Cosmos 2369 Rocket 2.1 03:19:38 19° SSW 03:23:46 78° WNW 03:29:24 10° NNE
Cosmos 1459 Rocket 4.4 03:25:20 10° N 03:31:44 69° E 03:38:00 10° SSE
USA 308 4.5 03:27:47 10° NW 03:31:48 36° NNE 03:35:48 10° E
CZ-4C R/B 3.9 03:27:41 10° WNW 03:33:35 24° WSW 03:39:57 10° SSW
Cosmos 2150 Rocket 4.1 03:29:22 14° SSW 03:34:00 72° WNW 03:39:27 10° NNE
Cosmos 1727 Rocket 4.0 03:27:56 10° SSW 03:34:07 70° W 03:40:25 10° N
CZ-2C R/B 2.8 03:31:40 10° NNE 03:35:29 82° ESE 03:39:21 10° S
Okean 2 3.3 03:34:07 10° S 03:38:15 83° W 03:42:27 10° N
DELTA 2 R/B (1) 4.0 03:34:42 15° W 03:38:54 42° SSW 03:44:07 10° SE
ALOS 3.3 03:34:35 10° NNE 03:39:06 47° E 03:43:35 10° S
SL-27 R/B 2.9 03:38:32 10° NNW 03:41:49 58° ENE 03:45:04 10° SSE
PSLV R/B 4.0 03:41:10 10° NNE 03:45:22 61° E 03:49:30 10° S
CZ-2C R/B 2.4 03:40:36 10° NNE 03:45:26 84° WNW 03:50:24 10° SSW
CZ-2D R/B 4.0 03:41:34 10° N 03:45:29 40° WNW 03:49:03 12° SW
USA 234 3.9 03:39:39 10° NE 03:45:52 48° NNW 03:52:06 10° W
Cosmos 1766 4.3 03:43:09 10° NNW 03:46:32 27° W 03:49:44 11° SSW
GP-B 3.1 03:43:09 10° N 03:47:37 84° W 03:52:02 10° S
Cosmos 1758 3.7 03:45:30 10° N 03:49:34 70° E 03:53:39 10° SSE
FENGYUN 3A 4.1 03:44:48 10° NNE 03:50:11 67° E 03:55:31 10° S
Cosmos 1461 3.7 03:51:15 10° SSW 03:55:54 60° ESE 04:00:31 10° NE
Cosmos 1656 Rocket 3.7 03:51:52 10° SW 03:57:14 67° WNW 04:02:42 10° NNE
Cosmos 44 3.5 03:54:32 10° NW 03:59:56 63° WSW 04:05:05 10° SSE
Cosmos 1048 Rocket 4.5 03:56:55 10° NW 04:01:54 39° WSW 04:06:48 10° S
Cosmos 1818 3.6 03:58:22 10° NW 04:03:50 70° WSW 04:09:15 10° SSE
Cosmos 1674 4.0 04:01:55 10° SSE 04:05:31 43° E 04:09:10 10° NNE
Meteor 2-10 4.4 04:01:36 10° NNW 04:07:05 51° W 04:12:23 10° SSW
Cosmos 1975 Rocket 3.3 04:03:40 10° S 04:08:06 79° E 04:12:33 10° N
METEOR-M 4.5 04:04:55 10° NNE 04:10:17 71° ESE 04:15:36 10° S
Cosmos 1315 Rocket 3.5 04:06:31 10° N 04:10:24 59° ENE 04:14:16 10° SSE
Meteor 2-11 Rocket 4.5 04:04:14 10° N 04:10:24 85° W 04:16:33 10° S
Cosmos 1470 3.3 04:09:50 10° NNW 04:13:26 37° W 04:17:00 10° SSW
X-37B 0.7 04:10:21 10° W 04:13:34 83° NNE 04:16:45 10° E
H-2A R/B 3.4 04:10:23 10° SE 04:14:26 46° ENE 04:18:36 10° N
COSMOS 2487 4.3 04:12:16 10° N 04:15:27 35° ENE 04:18:35 10° SE
ARIANE 5 R/B 4.0 04:12:34 10° NNW 04:16:26 22° WNW 04:20:19 10° WSW
SL-4 R/B 4.3 04:15:44 10° WSW 04:16:32 10° SW 04:17:20 10° SW
Landsat 5 3.7 04:13:41 10° SSE 04:18:11 87° W 04:22:43 10° NNW
SL-24 R/B - RUBIN 2 4.5 04:15:01 10° NW 04:19:53 35° WSW 04:24:13 10° S
Cosmos 1725 Rocket 4.1 04:15:00 10° N 04:21:21 87° W 04:27:38 10° S
